Tracking 25709 objects as of 23-May-2022
HD Live streaming from Space Station
objects crossing your sky now

FREGAT DEB

Track FREGAT DEB now!
10-day predictions


NORAD ID: 47112
Int'l Code: 2011-037NH
Perigee: 429.7 km
Apogee: 3,022.2 km
Inclination: 51.4 °
Period: 120.8 minutes
Semi major axis: 8096 km
RCS: Unknown
Launch date: July 18, 2011
Source: Commonwealth of Independent States (former USSR) (CIS)
Launch site: TYURATAM MISSILE AND SPACE COMPLEX (TTMTR)

Note: This is SATELLITE DEBRIS
aabbcc
Your satellite tracking list
Your tracking list is empty




NASA's NSSDC Master Catalog

Two Line Element Set (TLE):
1 47112U 11037NH  22143.16195330  .00156156  00000-0  27478-1 0  9990
2 47112  51.4371 301.4215 1600907  27.5903 340.1364 11.91565937 76677
Source of the keplerian elements: AFSPC